Home   Weather   Glyfada   Past weeks

Flag for Greece Past Weather in Glyfada, Greece — Yesterday and Last 2 Weeks

Now
73 °F

Passing clouds.


Feels Like: 77 °F
Forecast: 61 / 76 °F
Wind: 16 mph from Northeast

Location: Eleftherios Venizelos International Airport

Current Time: Apr 30, 2017 at 4:25:00 pm

Latest Report: Apr 30, 2017 at 3:20 pm


Visibility: N/A

Pressure: 29.80 "Hg

Humidity: 47%

Dew Point: 52 °F

Location of GlyfadaLocation

Past Weather in Glyfada — Graph

°F

Glyfada Temperature Yesterday

Maximum temperature yesterday: 79 °F (at 5:20 pm)
Minimum temperature yesterday: 48 °F (at 4:20 am)
Average temperature yesterday: 66 °F

High & Low Weather Summary for the Past Weeks

 TemperatureHumidityPressure
High81 °F (Apr 28, 3:50 pm)100% (Apr 17, 1:20 am)30.24 "Hg (Apr 17, 1:20 am)
Low39 °F (Apr 23, 1:50 am)15% (Apr 28, 10:50 pm)29.77 "Hg (Apr 17, 2:50 pm)
Average60 °F58%30.00 "Hg
* Reported Apr 15 2:20 pm — Apr 30 2:50 pm, Glyfada, Weather by CustomWeather, © 2017

Note: Actual official high and low records may vary slightly from our data, if they occured in-between our weather recording intervals... More about our weather records

Advertising

Glyfada Weather History for the Previous 24 Hours

Scroll right to see more
 ConditionsComfort  
Time TempWeatherWind HumidityBarometerVisibility
2:50 pm
Sun, Apr 30
73 °FPassing clouds.14 mph50%29.80 "HgN/A
2:20 pm73 °FPassing clouds.13 mph41%29.80 "HgN/A
1:50 pm77 °FPassing clouds.10 mph28%29.80 "HgN/A
1:20 pm77 °FPassing clouds.9 mph26%29.80 "HgN/A
12:50 pm75 °FPassing clouds.12 mph24%29.83 "HgN/A
12:20 pm75 °FPassing clouds.10 mph29%29.83 "HgN/A
11:50 am73 °FPassing clouds.5 mph31%29.83 "HgN/A
11:20 am72 °FPassing clouds.7 mph33%29.83 "HgN/A
10:20 am72 °FPassing clouds.7 mph33%29.83 "HgN/A
9:50 am72 °FPassing clouds.5 mph33%29.83 "HgN/A
9:20 am70 °FPassing clouds.3 mph43%29.83 "HgN/A
8:50 am68 °FPassing clouds.2 mph43%29.83 "HgN/A
8:20 am64 °FPassing clouds.2 mph49%29.83 "HgN/A
7:50 am64 °FPassing clouds.3 mph49%29.83 "HgN/A
7:20 am63 °FPassing clouds.2 mph56%29.83 "HgN/A
6:50 am63 °FPassing clouds.5 mph59%29.83 "HgN/A
6:20 am63 °FPassing clouds.6 mph64%29.80 "HgN/A
5:50 am61 °FPassing clouds.5 mph55%29.80 "HgN/A
5:20 am61 °FPassing clouds.3 mph59%29.80 "HgN/A
4:50 am63 °FPassing clouds.1 mph56%29.83 "HgN/A
4:20 am63 °FPassing clouds.2 mph56%29.83 "HgN/A
3:50 am63 °FPassing clouds.No wind49%29.83 "HgN/A
3:20 am63 °FPassing clouds.5 mph49%29.83 "HgN/A
2:50 am63 °FPassing clouds.2 mph52%29.83 "HgN/A
2:20 am63 °FPassing clouds.5 mph49%29.83 "HgN/A
1:50 am66 °FPassing clouds.5 mph40%29.86 "HgN/A
1:20 am66 °FPassing clouds.3 mph40%29.86 "HgN/A
12:50 am64 °FPassing clouds.5 mph46%29.86 "HgN/A
12:20 am64 °FPassing clouds.2 mph43%29.86 "HgN/A
11:50 pm
Sat, Apr 29
64 °FPassing clouds.5 mph43%29.86 "HgN/A
11:20 pm64 °FPassing clouds.5 mph46%29.86 "HgN/A
10:20 pm64 °FPassing clouds.No wind64%29.86 "HgN/A
9:50 pm64 °FPassing clouds.No wind64%29.86 "HgN/A
9:20 pm66 °FPassing clouds.3 mph60%29.86 "HgN/A
8:50 pm68 °FPassing clouds.2 mph53%29.86 "HgN/A
8:20 pm68 °FPassing clouds.1 mph49%29.86 "HgN/A
7:50 pm72 °FPassing clouds.2 mph33%29.86 "HgN/A
7:20 pm72 °FSunny.6 mph33%29.86 "Hg10 mi
6:50 pm73 °FSunny.8 mph27%29.86 "Hg10 mi
6:20 pm75 °FSunny.10 mph24%29.86 "Hg10 mi
5:50 pm77 °FSunny.12 mph30%29.89 "Hg10 mi
5:20 pm79 °FSunny.12 mph26%29.89 "Hg10 mi
4:50 pm75 °FPassing clouds.6 mph54%29.86 "HgN/A
4:20 pm73 °FPassing clouds.7 mph61%29.89 "HgN/A
Weather by CustomWeather, © 2017

See weather overviewHow to use our weather pages